| time (UTC) | temp F | wind direction | speed MPH | gust MPH | rain 1hr in | rain 24hr in | rain mn in | humidity % | barometer mb |
| 20260510153058 | 62 | 248 | 0.0 | 1.0 | 0.00 | 0.00 | 0.00 | 79 | 1013.1 |
| 20260510151527 | 62 | 318 | 0.0 | 3.0 | 0.00 | 0.00 | 0.00 | 78 | 1013.1 |
| 20260510150100 | 63 | 300 | 0.0 | 2.0 | 0.00 | 0.00 | 0.00 | 75 | 1013.1 |
| 20260510144540 | 63 | 231 | 0.0 | 3.0 | 0.00 | 0.00 | 0.00 | 73 | 1013.1 |
| 20260510143006 | 63 | 186 | 0.0 | 1.0 | 0.00 | 0.00 | 0.00 | 73 | 1013.1 |
| 20260510141530 | 63 | 269 | 1.0 | 4.0 | 0.00 | 0.00 | 0.00 | 73 | 1013.2 |
| 20260510140051 | 63 | 195 | 2.0 | 4.0 | 0.00 | 0.00 | 0.00 | 73 | 1013.2 |
| 20260510134522 | 64 | 215 | 1.0 | 4.0 | 0.00 | 0.00 | 0.00 | 71 | 1013.4 |
| 20260510133046 | 64 | 229 | 0.0 | 1.0 | 0.00 | 0.00 | 0.00 | 68 | 1013.4 |
| 20260510131516 | 64 | 316 | 0.0 | 1.0 | 0.00 | 0.00 | 0.00 | 67 | 1013.4 |
| 20260510130040 | 64 | 317 | 0.0 | 2.0 | 0.00 | 0.00 | 0.00 | 69 | 1013.6 |
| 20260510124514 | 63 | 321 | 1.0 | 3.0 | 0.00 | 0.00 | 0.00 | 70 | 1013.8 |
| 20260510123045 | 64 | 253 | 0.0 | 1.0 | 0.00 | 0.00 | 0.00 | 67 | 1013.9 |
| 20260510121516 | 64 | 260 | 0.0 | 2.0 | 0.00 | 0.00 | 0.00 | 69 | 1014.0 |
| 20260510120048 | 64 | 307 | 1.0 | 5.0 | 0.00 | 0.00 | 0.00 | 68 | 1014.0 |
| 20260510114521 | 65 | 248 | 1.0 | 5.0 | 0.00 | 0.00 | 0.00 | 68 | 1014.0 |
| 20260510113055 | 64 | 245 | 1.0 | 5.0 | 0.00 | 0.00 | 0.00 | 67 | 1014.1 |
| 20260510111518 | 65 | 233 | 2.0 | 5.0 | 0.00 | 0.00 | 0.00 | 68 | 1014.2 |
| 20260510110056 | 64 | 230 | 2.0 | 5.0 | 0.00 | 0.00 | 0.00 | 68 | 1014.4 |
| 20260510104520 | 64 | 177 | 2.0 | 5.0 | 0.00 | 0.00 | 0.00 | 68 | 1014.5 |
| 20260510103054 | 65 | 215 | 1.0 | 4.0 | 0.00 | 0.00 | 0.00 | 66 | 1014.4 |
| 20260510101530 | 65 | 155 | 0.0 | 3.0 | 0.00 | 0.00 | 0.00 | 68 | 1014.3 |
| 20260510100111 | 65 | 323 | 0.0 | 3.0 | 0.00 | 0.00 | 0.00 | 65 | 1014.5 |
| 20260510094539 | 64 | 131 | 1.0 | 3.0 | 0.00 | 0.00 | 0.00 | 66 | 1014.7 |
| 20260510093008 | 64 | 297 | 0.0 | 3.0 | 0.00 | 0.00 | 0.00 | 69 | 1014.9 |
| 20260510091537 | 63 | 82 | 0.0 | 5.0 | 0.00 | 0.00 | 0.00 | 70 | 1014.9 |
| 20260510090003 | 63 | 113 | 1.0 | 3.0 | 0.00 | 0.00 | 0.00 | 69 | 1014.9 |
| 20260510084529 | 63 | 356 | 0.0 | 4.0 | 0.00 | 0.00 | 0.00 | 70 | 1014.9 |
| 20260510083058 | 63 | 223 | 0.0 | 3.0 | 0.00 | 0.00 | 0.00 | 69 | 1015.0 |
| 20260510081537 | 61 | 233 | 0.0 | 2.0 | 0.00 | 0.00 | 0.00 | 73 | 1015.1 |
| 20260510080006 | 59 | 174 | 1.0 | 5.0 | 0.00 | 0.00 | 0.00 | 75 | 1015.2 |
| 20260510074536 | 58 | 201 | 2.0 | 4.0 | 0.00 | 0.00 | 0.00 | 77 | 1015.2 |
| 20260510073008 | 57 | 235 | 2.0 | 4.0 | 0.00 | 0.00 | 0.00 | 79 | 1015.3 |
| 20260510071547 | 57 | 181 | 0.0 | 3.0 | 0.00 | 0.00 | 0.00 | 79 | 1015.2 |
| 20260510070030 | 55 | 134 | 0.0 | 2.0 | 0.00 | 0.00 | 0.00 | 82 | 1015.2 |
| 20260510064600 | 54 | 58 | 0.0 | 1.0 | 0.00 | 0.00 | 0.00 | 82 | 1015.3 |
| 20260510063038 | 54 | 53 | 0.0 | 1.0 | 0.00 | 0.00 | 0.00 | 86 | 1015.6 |
| 20260510061515 | 53 | 104 | 0.0 | 2.0 | 0.00 | 0.00 | 0.00 | 86 | 1015.6 |
| 20260510060039 | 53 | 48 | 0.0 | 2.0 | 0.00 | 0.00 | 0.00 | 86 | 1015.7 |
| 20260510054526 | 53 | 206 | 0.0 | 2.0 | 0.00 | 0.00 | 0.00 | 85 | 1016.0 |
| 20260510053059 | 53 | 214 | 0.0 | 2.0 | 0.00 | 0.00 | 0.00 | 86 | 1015.8 |
| 20260510051530 | 53 | 263 | 0.0 | 1.0 | 0.00 | 0.00 | 0.00 | 87 | 1015.9 |
| 20260510050007 | 52 | 263 | 0.0 | 1.0 | 0.00 | 0.00 | 0.00 | 88 | 1016.0 |
| 20260510044537 | 51 | 263 | 0.0 | 1.0 | 0.00 | 0.00 | 0.00 | 88 | 1016.0 |
| 20260510043015 | 50 | 263 | 0.0 | 1.0 | 0.00 | 0.00 | 0.00 | 89 | 1016.1 |
| 20260510041553 | 50 | 229 | 0.0 | 1.0 | 0.00 | 0.00 | 0.00 | 89 | 1016.1 |
| 20260510040034 | 50 | 257 | 0.0 | 2.0 | 0.00 | 0.00 | 0.00 | 88 | 1016.1 |
| 20260510034513 | 51 | 304 | 0.0 | 2.0 | 0.00 | 0.00 | 0.00 | 88 | 1016.0 |
| 20260510031548 | 50 | 124 | 0.0 | 1.0 | 0.00 | 0.00 | 0.00 | 90 | 1016.5 |
| 20260510030035 | 50 | 124 | 0.0 | 1.0 | 0.00 | 0.00 | 0.00 | 89 | 1016.5 |
| 20260510024515 | 51 | 25 | 0.0 | 0.0 | 0.00 | 0.00 | 0.00 | 88 | 1016.6 |
| 20260510023156 | 52 | 25 | 0.0 | 1.0 | 0.00 | 0.00 | 0.00 | 87 | 1016.6 |
| 20260510021625 | 52 | 43 | 0.0 | 1.0 | 0.00 | 0.00 | 0.00 | 86 | 1016.7 |
| 20260510020017 | 53 | 53 | 0.0 | 0.0 | 0.00 | 0.00 | 0.00 | 86 | 1016.7 |
| 20260510014503 | 53 | 53 | 0.0 | 1.0 | 0.00 | 0.00 | 0.00 | 85 | 1016.9 |
| 20260510013102 | 53 | 53 | 0.0 | 1.0 | 0.00 | 0.00 | 0.00 | 86 | 1016.9 |
| 20260510011542 | 53 | 53 | 0.0 | 1.0 | 0.00 | 0.00 | 0.00 | 86 | 1016.9 |
| 20260510010035 | 53 | 53 | 0.0 | 1.0 | 0.00 | 0.00 | 0.00 | 86 | 1016.9 |
| 20260510004511 | 53 | 53 | 0.0 | 2.0 | 0.00 | 0.00 | 0.00 | 86 | 1016.9 |
| 20260510003002 | 53 | 314 | 0.0 | 1.0 | 0.00 | 0.00 | 0.00 | 85 | 1016.9 |
| 20260510001547 | 53 | 314 | 0.0 | 0.0 | 0.00 | 0.00 | 0.00 | 85 | 1016.9 |
| 20260510000033 | 53 | 314 | 0.0 | 0.0 | 0.00 | 0.00 | 0.00 | 85 | 1017.0 |
| 20260509234511 | 53 | 314 | 0.0 | 1.0 | 0.00 | 0.00 | 0.00 | 85 | 1017.1 |
| 20260509233051 | 53 | 314 | 0.0 | 1.0 | 0.00 | 0.00 | 0.00 | 85 | 1016.9 |
| 20260509231530 | 54 | 349 | 0.0 | 2.0 | 0.00 | 0.00 | 0.00 | 84 | 1017.1 |
| 20260509230022 | 54 | 262 | 0.0 | 1.0 | 0.00 | 0.00 | 0.00 | 84 | 1017.3 |
| 20260509224556 | 54 | 328 | 0.0 | 1.0 | 0.00 | 0.00 | 0.00 | 82 | 1017.1 |
| 20260509223037 | 54 | 350 | 0.0 | 3.0 | 0.00 | 0.00 | 0.00 | 82 | 1017.1 |
| 20260509221520 | 55 | 4 | 1.0 | 2.0 | 0.00 | 0.00 | 0.00 | 80 | 1017.1 |
| 20260509220003 | 56 | 50 | 0.0 | 4.0 | 0.00 | 0.00 | 0.00 | 79 | 1017.1 |
| 20260509214553 | 56 | 13 | 0.0 | 2.0 | 0.00 | 0.00 | 0.00 | 78 | 1017.1 |
| 20260509213023 | 57 | 96 | 0.0 | 1.0 | 0.00 | 0.00 | 0.00 | 77 | 1016.9 |
| 20260509211509 | 57 | 304 | 1.0 | 3.0 | 0.00 | 0.00 | 0.00 | 77 | 1016.8 |
| 20260509210048 | 57 | 103 | 1.0 | 2.0 | 0.00 | 0.00 | 0.00 | 75 | 1016.8 |
| 20260509204518 | 58 | 149 | 0.0 | 2.0 | 0.00 | 0.00 | 0.00 | 73 | 1016.6 |
| 20260509203101 | 59 | 129 | 1.0 | 6.0 | 0.00 | 0.00 | 0.00 | 71 | 1016.6 |
| 20260509201539 | 60 | 143 | 1.0 | 2.0 | 0.00 | 0.00 | 0.00 | 69 | 1016.6 |
| 20260509200018 | 60 | 338 | 0.0 | 6.0 | 0.00 | 0.00 | 0.00 | 67 | 1016.6 |
| 20260509194558 | 61 | 83 | 0.0 | 1.0 | 0.00 | 0.00 | 0.00 | 67 | 1016.5 |
| 20260509193034 | 61 | 82 | 1.0 | 5.0 | 0.00 | 0.00 | 0.00 | 67 | 1016.5 |
| 20260509191514 | 61 | 336 | 0.0 | 5.0 | 0.00 | 0.00 | 0.00 | 65 | 1016.5 |
| 20260509190050 | 62 | 77 | 1.0 | 5.0 | 0.00 | 0.00 | 0.00 | 64 | 1016.3 |
| 20260509184528 | 62 | 66 | 6.0 | 13.0 | 0.00 | 0.00 | 0.00 | 62 | 1016.2 |
| 20260509183009 | 63 | 68 | 5.0 | 10.0 | 0.00 | 0.00 | 0.00 | 59 | 1016.1 |
| 20260509181539 | 64 | 73 | 6.0 | 13.0 | 0.00 | 0.00 | 0.00 | 60 | 1016.0 |
| 20260509180011 | 64 | 91 | 4.0 | 8.0 | 0.00 | 0.00 | 0.00 | 65 | 1015.9 |
| 20260509174542 | 64 | 321 | 0.0 | 1.0 | 0.00 | 0.00 | 0.00 | 67 | 1015.8 |
| 20260509173112 | 65 | 330 | 0.0 | 2.0 | 0.00 | 0.00 | 0.00 | 65 | 1015.7 |
| 20260509171544 | 66 | 7 | 0.0 | 2.0 | 0.00 | 0.00 | 0.00 | 63 | 1015.6 |
| 20260509170016 | 66 | 39 | 0.0 | 1.0 | 0.00 | 0.00 | 0.00 | 63 | 1015.6 |
| 20260509164545 | 67 | 53 | 2.0 | 4.0 | 0.00 | 0.00 | 0.00 | 59 | 1015.5 |
| 20260509163015 | 68 | 329 | 1.0 | 4.0 | 0.00 | 0.00 | 0.00 | 57 | 1015.4 |
| 20260509161552 | 67 | 347 | 3.0 | 10.0 | 0.00 | 0.00 | 0.00 | 57 | 1015.3 |
| 20260509160009 | 68 | 335 | 2.0 | 4.0 | 0.00 | 0.00 | 0.00 | 59 | 1015.4 |
| 20260509154548 | 66 | 295 | 4.0 | 8.0 | 0.00 | 0.00 | 0.00 | 61 | 1015.5 |